Location: Kitchener-Waterloo
(43.4500°N, 80.5000°W)
Time: 09:46:43
(UTC-04:00)

Amateur Radio Satellites - All Passes

Search period start: 01 November 2014 09:16
Search period end: 02 November 2014 08:16
Location: Kitchener-Waterloo, 43.4500°N, 80.5000°W

Satellite Date Start Highest point End Downlink Frequencies (MHz)
Time Altitude Azimuth
JAS-2 01 Nov 09:17:15 09:21:32 16° 309° (NW) 09:25:49 435.800 - 435.900 CW/SSB, 435.910 FM
HO-68 01 Nov 09:18:50 09:24:32 25° 93° (E) 09:30:10 435.675 MHz FM
ISS 01 Nov 09:51:50 09:54:23 21° 135° (SE) 09:56:56 145.800 FM
UKube-1 01 Nov 10:12:33 10:15:39 19° 93° (E) 10:18:43 145.840 MHz, 145.915 MHz
Sapphire 01 Nov 10:40:05 10:44:34 25° 45° (NE) 10:49:01 437.095 MHz 1200 baud AX-25 AFSK
Oscar 11 01 Nov 10:45:57 10:50:04 42° 98° (E) 10:54:09 145.825 FM, Beacon 2401.500 USB
KITSAT 1 01 Nov 10:58:49 11:06:30 51° 113° (ESE) 11:14:12 435.175 FM
SO-50 01 Nov 10:59:59 11:03:50 29° 114° (ESE) 11:07:48 436.795 FM
PCSat 01 Nov 11:01:24 11:06:26 37° 50° (NE) 11:11:25 145.825 MHz
FUNcube-1 01 Nov 11:05:21 11:08:58 28° 95° (E) 11:12:33 145.950 - 145.970 MHz USB
HO-68 01 Nov 11:05:37 11:12:45 67° 291° (WNW) 11:19:51 435.675 MHz FM
ISS 01 Nov 11:27:33 11:30:50 56° 332° (NNW) 11:34:07 145.800 FM
UKube-1 01 Nov 11:47:53 11:52:01 42° 290° (WNW) 11:56:07 145.840 MHz, 145.915 MHz
ZACube-1 01 Nov 11:58:36 12:02:48 72° 285° (WNW) 12:06:55 437.345 MHz
Oscar 11 01 Nov 12:22:53 12:25:57 19° 295° (WNW) 12:29:01 145.825 FM, Beacon 2401.500 USB
Sapphire 01 Nov 12:23:01 12:28:22 59° 244° (WSW) 12:33:41 437.095 MHz 1200 baud AX-25 AFSK
SO-50 01 Nov 12:40:03 12:44:16 37° 313° (NW) 12:48:37 436.795 FM
FUNcube-1 01 Nov 12:41:49 12:45:16 25° 293° (WNW) 12:48:42 145.950 - 145.970 MHz USB
PCSat 01 Nov 12:44:53 12:49:49 36° 249° (WSW) 12:54:42 145.825 MHz
KITSAT 1 01 Nov 12:54:24 13:02:02 44° 314° (NW) 13:09:42 435.175 FM
HO-68 01 Nov 12:55:31 12:59:09 15° 311° (NW) 13:02:47 435.675 MHz FM
Oscar 16 01 Nov 12:59:19 13:03:27 25° 64° (ENE) 13:07:35 437.025 USB, Beacon 2401.1428
JAS-1B 01 Nov 13:03:29 13:08:11 27° 62° (ENE) 13:12:58 435.800 - 435.900 CW/SSB
ISS 01 Nov 13:05:24 13:08:02 21° 351° (N) 13:10:40 145.800 FM
UOSAT-12 01 Nov 13:17:40 13:22:15 63° 121° (ESE) 13:26:56 437.025 FM, 437.400 FM
AO-Echo 01 Nov 13:26:14 13:30:07 23° 63° (ENE) 13:34:07 ?
Uribyol 2 01 Nov 13:34:14 13:38:18 23° 63° (ENE) 13:42:22 436.500 FM
ITAMSAT 1 01 Nov 13:42:15 13:46:29 26° 64° (ENE) 13:50:44 435.822 SSB
Saudisat 1A 01 Nov 13:44:00 13:47:36 24° 42° (NE) 13:51:11 436.775 MHz
Oscar 19 01 Nov 13:50:05 13:55:10 68° 73° (ENE) 14:00:17 437.125 CW, 437.150 USB
AO-27 01 Nov 14:29:00 14:34:10 66° 72° (ENE) 14:39:23 436.795 MHz FM
Oscar 16 01 Nov 14:37:39 14:42:33 44° 261° (W) 14:47:28 437.025 USB, Beacon 2401.1428
ISS 01 Nov 14:42:47 14:45:31 23° 12° (NNE) 14:48:15 145.800 FM
Gurwin Techsat 1B 01 Nov 14:50:38 14:55:48 55° 71° (ENE) 15:00:59 435.225 FM
JAS-1B 01 Nov 14:53:20 14:58:43 41° 262° (W) 15:04:08 435.800 - 435.900 CW/SSB
KITSAT 1 01 Nov 14:54:56 14:59:54 17° 341° (NNW) 15:04:53 435.175 FM
TMSAT-1 01 Nov 14:56:25 15:01:27 47° 70° (ENE) 15:06:32 436.925 FM
UOSAT-12 01 Nov 14:59:11 15:02:49 22° 320° (NW) 15:06:30 437.025 FM, 437.400 FM
AO-7 01 Nov 14:59:50 15:06:21 27° 53° (NE) 15:12:52 29.400 - 29.500 MHz
AO-Echo 01 Nov 15:03:42 15:08:32 48° 261° (W) 15:13:33 ?
Uribyol 2 01 Nov 15:12:23 15:17:26 49° 260° (W) 15:22:32 436.500 FM
ITAMSAT 1 01 Nov 15:20:46 15:25:43 44° 261° (W) 15:30:44 435.822 SSB
Uosat F 01 Nov 15:20:49 15:22:54 13° 57° (ENE) 15:24:58 435.120 FM
Saudisat 1A 01 Nov 15:23:08 15:27:25 49° 241° (WSW) 15:31:40 436.775 MHz
Oscar 19 01 Nov 15:32:04 15:35:00 15° 270° (W) 15:37:56 437.125 CW, 437.150 USB
JAS-2 01 Nov 16:01:58 16:05:23 15° 50° (NE) 16:08:58 435.800 - 435.900 CW/SSB, 435.910 FM
AO-27 01 Nov 16:10:58 16:14:09 16° 270° (W) 16:17:22 436.795 MHz FM
ISS 01 Nov 16:19:17 16:22:37 74° 31° (NNE) 16:25:57 145.800 FM
Gurwin Techsat 1B 01 Nov 16:32:16 16:36:06 20° 268° (W) 16:39:57 435.225 FM
TMSAT-1 01 Nov 16:37:23 16:41:35 24° 267° (W) 16:45:49 436.925 FM
AO-7 01 Nov 16:50:03 16:58:19 79° 253° (WSW) 17:06:40 29.400 - 29.500 MHz
KITSAT 1 01 Nov 16:54:58 16:59:18 15° 12° (NNE) 17:03:37 435.175 FM
Uosat F 01 Nov 16:55:52 17:00:54 88° 75° (ENE) 17:05:59 435.120 FM
Hamsat 01 Nov 17:21:06 17:24:11 20° 66° (ENE) 17:27:16 145.90 MHz
OPAL 01 Nov 17:30:27 17:32:17 12° 91° (E) 17:34:08 ?
JAS-2 01 Nov 17:42:35 17:48:55 68° 71° (ENE) 17:56:08 435.800 - 435.900 CW/SSB, 435.910 FM
SO-50 01 Nov 17:51:51 17:52:26 10° 26° (NNE) 17:53:00 436.795 FM
ISS 01 Nov 17:56:54 17:58:57 15° 228° (SW) 18:00:59 145.800 FM
Uosat F 01 Nov 18:38:57 18:40:21 11° 272° (W) 18:41:46 435.120 FM
AO-7 01 Nov 18:47:50 18:52:22 16° 272° (W) 18:56:56 29.400 - 29.500 MHz
KITSAT 1 01 Nov 18:50:29 18:57:41 34° 40° (NE) 19:04:50 435.175 FM
SO-67 01 Nov 18:53:27 18:56:10 22° 69° (ENE) 18:58:54 435.3500 MHz FM
Hamsat 01 Nov 18:56:02 18:59:54 36° 263° (W) 19:03:47 145.90 MHz
OPAL 01 Nov 19:06:48 19:11:46 81° 288° (WNW) 19:16:43 ?
STRAND 1 01 Nov 19:26:53 19:31:08 26° 94° (E) 19:35:21 ?
SO-50 01 Nov 19:29:44 19:34:18 40° 48° (NE) 19:38:54 436.795 FM
JAS-2 01 Nov 19:29:48 19:34:42 23° 273° (W) 19:40:03 435.800 - 435.900 CW/SSB, 435.910 FM
HO-68 01 Nov 19:49:36 19:54:54 23° 55° (NE) 20:00:13 435.675 MHz FM
UOSAT-12 01 Nov 20:07:18 20:10:02 15° 34° (NE) 20:12:45 437.025 FM, 437.400 FM
Oscar 10/S400 01 Nov 20:10:50 20:41:38 51° 194° (SSW) 03:51:15 145.825 - 145.975 CW/USB, Beacon 145.810 USB
AO-40 01 Nov 20:23:44 22:45:24 30° 206° (SSW) 02:11:58 Beacon 2401.320
SO-67 01 Nov 20:26:23 20:29:04 21° 266° (W) 20:31:46 435.3500 MHz FM
KITSAT 1 01 Nov 20:45:42 20:53:45 71° 243° (WSW) 21:01:44 435.175 FM
OPAL 01 Nov 20:48:12 20:49:51 12° 306° (NW) 20:51:30 ?
STRAND 1 01 Nov 21:05:38 21:10:27 41° 291° (WNW) 21:15:14 ?
UKube-1 01 Nov 21:09:17 21:12:27 20° 64° (ENE) 21:15:39 145.840 MHz, 145.915 MHz
SO-50 01 Nov 21:10:32 21:14:45 30° 246° (WSW) 21:18:58 436.795 FM
RS-15 01 Nov 21:14:36 21:25:13 57° 114° (ESE) 21:35:45 29.354 - 29.394 USB, Beacon 29.352 USB
ZACube-1 01 Nov 21:22:44 21:24:20 12° 61° (ENE) 21:25:56 437.345 MHz
HO-68 01 Nov 21:34:40 21:41:51 80° 254° (WSW) 21:49:05 435.675 MHz FM
Oscar 11 01 Nov 21:42:02 21:46:02 38° 70° (ENE) 21:50:02 145.825 FM, Beacon 2401.500 USB
UOSAT-12 01 Nov 21:46:16 21:51:01 74° 54° (NE) 21:55:40 437.025 FM, 437.400 FM
FUNcube-1 01 Nov 22:02:37 22:06:29 29° 68° (ENE) 22:10:17 145.950 - 145.970 MHz USB
MaSat-1 01 Nov 22:42:12 22:46:01 77° 297° (WNW) 22:49:27 437.345 MHz
KITSAT 1 01 Nov 22:44:07 22:47:41 14° 262° (W) 22:51:14 435.175 FM
UKube-1 01 Nov 22:44:14 22:48:21 41° 261° (W) 22:52:31 145.840 MHz, 145.915 MHz
ZACube-1 01 Nov 22:55:36 23:00:07 80° 257° (WSW) 23:04:34 437.345 MHz
Oscar 11 01 Nov 23:19:10 23:22:21 20° 267° (W) 23:25:33 145.825 FM, Beacon 2401.500 USB
HO-68 01 Nov 23:27:10 23:30:38 14° 273° (W) 23:34:07 435.675 MHz FM
RS-15 01 Nov 23:27:21 23:37:49 49° 318° (NW) 23:48:23 29.354 - 29.394 USB, Beacon 29.352 USB
UOSAT-12 01 Nov 23:28:08 23:30:32 14° 252° (WSW) 23:32:55 437.025 FM, 437.400 FM
FUNcube-1 01 Nov 23:38:52 23:42:47 29° 264° (W) 23:46:39 145.950 - 145.970 MHz USB
Sapphire 02 Nov 01:25:21 01:28:16 15° 103° (ESE) 01:31:12 437.095 MHz 1200 baud AX-25 AFSK
PCSat 02 Nov 01:45:10 01:49:28 25° 108° (ESE) 01:53:47 145.825 MHz
RS-15 02 Nov 01:45:13 01:53:44 25° 351° (N) 01:02:25 29.354 - 29.394 USB, Beacon 29.352 USB
Oscar 19 02 Nov 01:01:16 01:05:11 22° 93° (E) 01:09:05 437.125 CW, 437.150 USB
JAS-1B 02 Nov 01:33:03 01:40:06 50° 100° (E) 01:48:24 435.800 - 435.900 CW/SSB
AO-27 02 Nov 01:41:44 01:45:42 22° 93° (E) 01:49:38 436.795 MHz FM
Oscar 16 02 Nov 01:47:50 01:52:54 60° 101° (E) 01:57:57 437.025 USB, Beacon 2401.1428
Sapphire 02 Nov 02:05:33 02:10:58 80° 301° (WNW) 02:16:26 437.095 MHz 1200 baud AX-25 AFSK
Gurwin Techsat 1B 02 Nov 02:06:31 02:10:23 20° 92° (E) 02:14:14 435.225 FM
AO-Echo 02 Nov 02:09:31 02:14:43 52° 99° (E) 02:19:50 ?
TMSAT-1 02 Nov 02:12:11 02:15:32 17° 90° (E) 02:18:51 436.925 FM
Uribyol 2 02 Nov 02:23:49 02:28:55 54° 100° (E) 02:33:58 436.500 FM
PCSat 02 Nov 02:27:17 02:32:33 51° 306° (NW) 02:37:51 145.825 MHz
ITAMSAT 1 02 Nov 02:32:10 02:37:22 61° 101° (ESE) 02:42:29 435.822 SSB
Oscar 19 02 Nov 02:39:51 02:44:46 48° 290° (WNW) 02:49:40 437.125 CW, 437.150 USB
RS-15 02 Nov 03:01:14 03:10:48 32° 26° (NNE) 03:20:37 29.354 - 29.394 USB, Beacon 29.352 USB
AO-27 02 Nov 03:20:26 03:25:28 50° 290° (WNW) 03:30:29 436.795 MHz FM
JAS-1B 02 Nov 03:24:08 03:30:32 38° 295° (WNW) 03:38:01 435.800 - 435.900 CW/SSB
Oscar 16 02 Nov 03:28:16 03:31:48 19° 299° (WNW) 03:35:19 437.025 USB, Beacon 2401.1428
OPAL 02 Nov 03:45:09 03:49:25 28° 63° (ENE) 03:53:39 ?
Gurwin Techsat 1B 02 Nov 03:45:30 03:50:41 55° 289° (WNW) 03:55:51 435.225 FM
AO-Echo 02 Nov 03:49:01 03:53:06 23° 297° (WNW) 03:57:09 ?
TMSAT-1 02 Nov 03:50:39 03:55:55 65° 287° (WNW) 04:01:09 436.925 FM
AO-7 02 Nov 03:50:42 03:58:03 33° 96° (E) 04:05:22 29.400 - 29.500 MHz
Sapphire 02 Nov 03:51:51 03:55:17 17° 322° (NW) 03:58:45 437.095 MHz 1200 baud AX-25 AFSK
JAS-2 02 Nov 03:54:45 03:56:33 11° 80° (E) 03:58:20 435.800 - 435.900 CW/SSB, 435.910 FM
Uosat F 02 Nov 04:03:03 04:07:10 25° 94° (E) 04:11:15 435.120 FM
Uribyol 2 02 Nov 04:04:09 04:08:00 21° 298° (WNW) 04:11:49 436.500 FM
ITAMSAT 1 02 Nov 04:12:44 04:16:22 19° 299° (WNW) 04:19:59 435.822 SSB
PCSat 02 Nov 04:15:11 04:17:17 12° 328° (NNW) 04:19:24 145.825 MHz
Saudisat 1A 02 Nov 04:30:37 04:34:29 31° 115° (ESE) 04:38:23 436.775 MHz
RS-15 02 Nov 05:13:58 05:25:11 79° 54° (NE) 05:36:52 29.354 - 29.394 USB, Beacon 29.352 USB
OPAL 02 Nov 05:23:22 05:28:08 39° 260° (W) 05:32:52 ?
JAS-2 02 Nov 05:35:17 05:43:06 61° 100° (E) 05:50:34 435.800 - 435.900 CW/SSB, 435.910 FM
Hamsat 02 Nov 05:40:09 05:44:01 34° 97° (E) 05:47:53 145.90 MHz
Uosat F 02 Nov 05:41:21 05:46:06 42° 291° (WNW) 05:50:48 435.120 FM
AO-7 02 Nov 05:43:05 05:51:12 59° 295° (WNW) 05:59:18 29.400 - 29.500 MHz
STRAND 1 02 Nov 05:43:44 05:48:32 42° 69° (ENE) 05:53:22 ?
MaSat-1 02 Nov 05:51:15 05:52:21 12° 51° (NE) 05:53:27 437.345 MHz
Saudisat 1A 02 Nov 06:10:02 06:14:00 32° 314° (NW) 06:18:00 436.775 MHz
SO-67 02 Nov 06:47:57 06:50:42 22° 95° (E) 06:53:26 435.3500 MHz FM
Hamsat 02 Nov 07:16:29 07:19:47 22° 293° (WNW) 07:23:05 145.90 MHz
JAS-2 02 Nov 07:20:51 07:27:37 33° 299° (WNW) 07:34:14 435.800 - 435.900 CW/SSB, 435.910 FM
STRAND 1 02 Nov 07:23:39 07:27:51 25° 266° (W) 07:32:07 ?
MaSat-1 02 Nov 07:25:53 07:27:40 18° 251° (WSW) 07:29:24 437.345 MHz
RS-15 02 Nov 07:27:21 07:36:29 30° 256° (WSW) 07:45:59 29.354 - 29.394 USB, Beacon 29.352 USB
AO-7 02 Nov 07:38:04 07:42:17 15° 317° (NW) 07:46:30 29.400 - 29.500 MHz
HO-68 02 Nov 08:02:38 08:07:23 18° 90° (E) 08:12:06 435.675 MHz FM
ISS 02 Nov 08:04:00 08:05:23 12° 131° (SE) 08:06:46 145.800 FM
